Time,TemperatureF,DewpointF,PressureIn,WindDirection,WindDirectionDegrees,WindSpeedMPH,WindSpeedGustMPH,Humidity,HourlyPrecipIn,Conditions,Clouds,dailyrainin,SolarRadiationWatts/m^2,SoftwareType,DateUTC
2013-06-16 00:02:00,67.4,52.6,29.95,North,360,0.0,0.0,59,0.00,,,0.00,0,Wunderground v.1.15,2013-06-16 04:02:00,
2013-06-16 00:06:00,67.3,52.5,29.95,North,360,0.0,0.0,59,0.00,,,0.00,0,Wunderground v.1.15,2013-06-16 04:06:00,
2013-06-16 00:08:00,67.1,52.3,29.95,North,360,0.0,0.0,59,0.00,,,0.00,0,Wunderground v.1.15,2013-06-16 04:08:00,
2013-06-16 00:16:00,66.9,52.6,29.95,North,360,0.0,0.0,60,0.00,,,0.00,0,Wunderground v.1.15,2013-06-16 04:16:00,
2013-06-16 00:20:00,66.8,52.9,29.95,North,360,0.0,0.0,61,0.00,,,0.00,0,Wunderground v.1.15,2013-06-16 04:20:00,
2013-06-16 00:22:00,66.6,52.7,29.95,North,360,0.0,0.0,61,0.00,,,0.00,0,Wunderground v.1.15,2013-06-16 04:22:00,
2013-06-16 00:27:00,66.4,52.5,29.95,North,360,0.0,0.0,61,0.00,,,0.00,0,Wunderground v.1.15,2013-06-16 04:27:00,
2013-06-16 00:33:00,66.3,52.9,29.95,North,360,0.0,0.0,62,0.00,,,0.00,0,Wunderground v.1.15,2013-06-16 04:33:00,
2013-06-16 00:41:00,66.0,53.0,29.95,North,360,0.0,1.0,63,0.00,,,0.00,0,Wunderground v.1.15,2013-06-16 04:41:00,
2013-06-16 00:47:00,65.8,52.9,29.95,North,360,0.0,0.0,63,0.00,,,0.00,0,Wunderground v.1.15,2013-06-16 04:47:00,
2013-06-16 00:53:00,65.6,53.1,29.95,North,360,0.0,0.0,64,0.00,,,0.00,0,Wunderground v.1.15,2013-06-16 04:53:00,
2013-06-16 01:01:00,65.5,53.0,29.96,North,360,0.0,0.0,64,0.00,,,0.00,0,Wunderground v.1.15,2013-06-16 05:01:00,
2013-06-16 01:07:00,65.5,53.0,29.96,North,360,0.0,0.0,64,0.00,,,0.00,0,Wunderground v.1.15,2013-06-16 05:07:00,
2013-06-16 01:13:00,65.5,53.0,29.96,North,360,0.0,0.0,64,0.00,,,0.00,0,Wunderground v.1.15,2013-06-16 05:13:00,
2013-06-16 01:19:00,65.3,53.2,29.96,North,360,0.0,0.0,65,0.00,,,0.00,0,Wunderground v.1.15,2013-06-16 05:19:00,
2013-06-16 01:24:00,65.2,53.1,29.96,North,360,0.0,0.0,65,0.00,,,0.00,0,Wunderground v.1.15,2013-06-16 05:24:00,
2013-06-16 01:31:00,65.0,53.4,29.96,North,360,0.0,0.0,66,0.00,,,0.00,0,Wunderground v.1.15,2013-06-16 05:31:00,
2013-06-16 01:37:00,64.7,53.5,29.96,North,360,0.0,0.0,67,0.00,,,0.00,0,Wunderground v.1.15,2013-06-16 05:37:00,
2013-06-16 01:42:00,64.3,53.9,29.96,North,360,0.0,0.0,69,0.00,,,0.00,0,Wunderground v.1.15,2013-06-16 05:42:00,
2013-06-16 01:49:00,63.9,54.3,29.96,North,360,0.0,0.0,71,0.00,,,0.00,0,Wunderground v.1.15,2013-06-16 05:49:00,
2013-06-16 01:54:00,63.5,54.3,29.96,North,360,0.0,0.0,72,0.00,,,0.00,0,Wunderground v.1.15,2013-06-16 05:54:00,
2013-06-16 02:00:00,62.9,54.5,29.96,North,360,0.0,1.0,74,0.00,,,0.00,0,Wunderground v.1.15,2013-06-16 06:00:00,
2013-06-16 02:06:00,62.6,54.6,29.96,North,360,0.0,0.0,75,0.00,,,0.00,0,Wunderground v.1.15,2013-06-16 06:06:00,
2013-06-16 02:12:00,62.3,54.3,29.96,North,360,0.0,0.0,75,0.00,,,0.00,0,Wunderground v.1.15,2013-06-16 06:12:00,
2013-06-16 02:20:00,62.0,54.3,29.96,North,360,0.0,0.0,76,0.00,,,0.00,0,Wunderground v.1.15,2013-06-16 06:20:00,
2013-06-16 02:26:00,61.8,54.5,29.96,North,360,0.0,0.0,77,0.00,,,0.00,0,Wunderground v.1.15,2013-06-16 06:26:00,
2013-06-16 02:32:00,61.5,54.6,29.96,North,360,0.0,0.0,78,0.00,,,0.00,0,Wunderground v.1.15,2013-06-16 06:32:00,
2013-06-16 02:40:00,61.2,54.6,29.96,North,360,0.0,0.0,79,0.00,,,0.00,0,Wunderground v.1.15,2013-06-16 06:40:00,
2013-06-16 02:46:00,61.0,54.4,29.96,North,360,0.0,0.0,79,0.00,,,0.00,0,Wunderground v.1.15,2013-06-16 06:46:00,
2013-06-16 02:52:00,60.9,54.7,29.96,North,360,0.0,0.0,80,0.00,,,0.00,0,Wunderground v.1.15,2013-06-16 06:52:00,
2013-06-16 03:00:00,60.5,54.6,29.96,North,360,0.0,0.0,81,0.00,,,0.00,0,Wunderground v.1.15,2013-06-16 07:00:00,
2013-06-16 03:06:00,60.2,54.3,29.96,North,360,0.0,0.0,81,0.00,,,0.00,0,Wunderground v.1.15,2013-06-16 07:06:00,
2013-06-16 03:12:00,60.1,54.6,29.96,North,360,0.0,0.0,82,0.00,,,0.00,0,Wunderground v.1.15,2013-06-16 07:12:00,
2013-06-16 03:18:00,59.9,54.7,29.96,North,360,0.0,0.0,83,0.00,,,0.00,0,Wunderground v.1.15,2013-06-16 07:18:00,
2013-06-16 03:27:00,59.6,54.4,29.96,North,360,0.0,0.0,83,0.00,,,0.00,0,Wunderground v.1.15,2013-06-16 07:27:00,
2013-06-16 03:33:00,59.5,54.3,29.95,North,360,0.0,0.0,83,0.00,,,0.00,0,Wunderground v.1.15,2013-06-16 07:33:00,
2013-06-16 03:40:00,59.2,54.4,29.95,North,360,0.0,0.0,84,0.00,,,0.00,0,Wunderground v.1.15,2013-06-16 07:40:00,
2013-06-16 03:45:00,59.2,54.7,29.96,North,360,0.0,0.0,85,0.00,,,0.00,0,Wunderground v.1.15,2013-06-16 07:45:00,
2013-06-16 03:51:00,59.0,54.5,29.96,North,360,0.0,0.0,85,0.00,,,0.00,0,Wunderground v.1.15,2013-06-16 07:51:00,
2013-06-16 03:57:00,58.9,54.4,29.96,North,360,0.0,0.0,85,0.00,,,0.00,0,Wunderground v.1.15,2013-06-16 07:57:00,
2013-06-16 04:03:00,58.7,54.2,29.96,North,360,0.0,0.0,85,0.00,,,0.00,0,Wunderground v.1.15,2013-06-16 08:03:00,
2013-06-16 04:11:00,58.6,54.4,29.96,North,360,0.0,0.0,86,0.00,,,0.00,0,Wunderground v.1.15,2013-06-16 08:11:00,
2013-06-16 04:17:00,58.6,54.4,29.96,North,360,0.0,0.0,86,0.00,,,0.00,0,Wunderground v.1.15,2013-06-16 08:17:00,
2013-06-16 04:23:00,58.4,54.2,29.96,North,360,0.0,0.0,86,0.00,,,0.00,0,Wunderground v.1.15,2013-06-16 08:23:00,
2013-06-16 04:29:00,58.4,54.5,29.96,North,360,0.0,0.0,87,0.00,,,0.00,0,Wunderground v.1.15,2013-06-16 08:29:00,
2013-06-16 04:37:00,58.3,54.4,29.95,North,360,0.0,0.0,87,0.00,,,0.00,0,Wunderground v.1.15,2013-06-16 08:37:00,
2013-06-16 04:42:00,58.3,54.4,29.95,North,360,0.0,0.0,87,0.00,,,0.00,0,Wunderground v.1.15,2013-06-16 08:42:00,
2013-06-16 04:49:00,58.1,54.2,29.94,North,360,0.0,0.0,87,0.00,,,0.00,0,Wunderground v.1.15,2013-06-16 08:49:00,
2013-06-16 04:56:00,58.1,54.6,29.94,North,360,0.0,0.0,88,0.00,,,0.00,0,Wunderground v.1.15,2013-06-16 08:56:00,
2013-06-16 05:02:00,58.1,54.6,29.94,North,360,0.0,0.0,88,0.00,,,0.00,0,Wunderground v.1.15,2013-06-16 09:02:00,
2013-06-16 05:09:00,58.0,54.5,29.94,North,360,0.0,0.0,88,0.00,,,0.00,0,Wunderground v.1.15,2013-06-16 09:09:00,
2013-06-16 05:14:00,58.0,54.8,29.94,North,360,0.0,0.0,89,0.00,,,0.00,0,Wunderground v.1.15,2013-06-16 09:14:00,
2013-06-16 05:20:00,58.0,54.8,29.94,North,360,0.0,0.0,89,0.00,,,0.00,0,Wunderground v.1.15,2013-06-16 09:20:00,
2013-06-16 05:26:00,57.8,54.6,29.94,North,360,0.0,0.0,89,0.00,,,0.00,0,Wunderground v.1.15,2013-06-16 09:26:00,
2013-06-16 05:32:00,57.6,54.4,29.94,North,360,0.0,0.0,89,0.00,,,0.00,5,Wunderground v.1.15,2013-06-16 09:32:00,
2013-06-16 05:39:00,57.5,54.3,29.94,North,360,0.0,0.0,89,0.00,,,0.00,5,Wunderground v.1.15,2013-06-16 09:39:00,
2013-06-16 05:46:00,57.3,54.1,29.94,North,360,0.0,0.0,89,0.00,,,0.00,12,Wunderground v.1.15,2013-06-16 09:46:00,
2013-06-16 05:52:00,57.3,54.1,29.94,North,360,0.0,0.0,89,0.00,,,0.00,16,Wunderground v.1.15,2013-06-16 09:52:00,
2013-06-16 05:59:00,57.3,54.1,29.94,North,360,0.0,0.0,89,0.00,,,0.00,30,Wunderground v.1.15,2013-06-16 09:59:00,
2013-06-16 06:04:00,57.3,54.4,29.95,North,360,0.0,0.0,90,0.00,,,0.00,37,Wunderground v.1.15,2013-06-16 10:04:00,
2013-06-16 06:10:00,57.3,54.4,29.95,North,360,0.0,0.0,90,0.00,,,0.00,46,Wunderground v.1.15,2013-06-16 10:10:00,
2013-06-16 06:16:00,57.5,54.6,29.94,North,360,0.0,0.0,90,0.00,,,0.00,83,Wunderground v.1.15,2013-06-16 10:16:00,
2013-06-16 06:22:00,57.6,55.0,29.94,North,360,0.0,0.0,91,0.00,,,0.00,72,Wunderground v.1.15,2013-06-16 10:22:00,
2013-06-16 06:27:00,57.8,55.2,29.94,North,360,0.0,0.0,91,0.00,,,0.00,28,Wunderground v.1.15,2013-06-16 10:27:00,
2013-06-16 06:33:00,58.0,55.1,29.94,North,360,0.0,0.0,90,0.00,,,0.00,30,Wunderground v.1.15,2013-06-16 10:33:00,
2013-06-16 06:40:00,58.1,55.5,29.94,North,360,0.0,0.0,91,0.00,,,0.00,28,Wunderground v.1.15,2013-06-16 10:40:00,
2013-06-16 06:45:00,58.4,55.8,29.94,North,360,0.0,0.0,91,0.00,,,0.00,30,Wunderground v.1.15,2013-06-16 10:45:00,
2013-06-16 06:51:00,58.6,56.0,29.94,North,360,0.0,0.0,91,0.00,,,0.00,44,Wunderground v.1.15,2013-06-16 10:51:00,
2013-06-16 06:57:00,58.9,56.3,29.94,North,360,0.0,0.0,91,0.00,,,0.00,56,Wunderground v.1.15,2013-06-16 10:57:00,
2013-06-16 07:03:00,59.0,56.4,29.95,North,360,0.0,0.0,91,0.00,,,0.00,56,Wunderground v.1.15,2013-06-16 11:03:00,
2013-06-16 07:09:00,59.2,56.6,29.95,North,360,0.0,0.0,91,0.00,,,0.00,62,Wunderground v.1.15,2013-06-16 11:09:00,
2013-06-16 07:17:00,59.6,57.0,29.95,North,360,0.0,0.0,91,0.00,,,0.00,56,Wunderground v.1.15,2013-06-16 11:17:00,
2013-06-16 07:22:00,59.9,57.0,29.95,North,360,0.0,0.0,90,0.00,,,0.00,60,Wunderground v.1.15,2013-06-16 11:22:00,
2013-06-16 07:31:00,60.1,57.2,29.95,North,360,0.0,0.0,90,0.00,,,0.00,95,Wunderground v.1.15,2013-06-16 11:31:00,
2013-06-16 07:37:00,60.2,56.6,29.95,North,360,0.0,0.0,88,0.00,,,0.00,132,Wunderground v.1.15,2013-06-16 11:37:00,
2013-06-16 07:43:00,60.7,56.8,29.95,North,360,0.0,2.0,87,0.00,,,0.00,123,Wunderground v.1.15,2013-06-16 11:43:00,
2013-06-16 07:49:00,61.0,56.5,29.95,North,360,0.0,0.0,85,0.00,,,0.00,141,Wunderground v.1.15,2013-06-16 11:49:00,
2013-06-16 07:54:00,61.5,56.3,29.95,North,360,0.0,0.0,83,0.00,,,0.00,125,Wunderground v.1.15,2013-06-16 11:54:00,
2013-06-16 08:00:00,62.0,56.1,29.94,North,360,0.0,1.0,81,0.00,,,0.00,107,Wunderground v.1.15,2013-06-16 12:00:00,
2013-06-16 08:06:00,62.4,55.8,29.94,North,360,0.0,0.0,79,0.00,,,0.00,105,Wunderground v.1.15,2013-06-16 12:06:00,
2013-06-16 08:12:00,62.9,55.9,29.94,North,360,0.0,0.0,78,0.00,,,0.00,100,Wunderground v.1.15,2013-06-16 12:12:00,
2013-06-16 08:20:00,63.4,56.1,29.94,North,360,0.0,0.0,77,0.00,,,0.00,116,Wunderground v.1.15,2013-06-16 12:20:00,
2013-06-16 08:26:00,63.7,56.4,29.94,North,360,0.0,0.0,77,0.00,,,0.00,105,Wunderground v.1.15,2013-06-16 12:26:00,
2013-06-16 08:32:00,64.0,56.3,29.94,North,360,0.0,0.0,76,0.00,,,0.00,139,Wunderground v.1.15,2013-06-16 12:32:00,
2013-06-16 08:39:00,64.3,55.8,29.94,North,360,0.0,0.0,74,0.00,,,0.00,151,Wunderground v.1.15,2013-06-16 12:39:00,
2013-06-16 08:44:00,64.8,55.9,29.94,North,360,0.0,0.0,73,0.00,,,0.00,160,Wunderground v.1.15,2013-06-16 12:44:00,
2013-06-16 08:52:00,65.3,56.0,29.94,North,360,0.0,0.0,72,0.00,,,0.00,253,Wunderground v.1.15,2013-06-16 12:52:00,
2013-06-16 09:04:00,66.6,56.5,29.93,North,360,0.0,0.0,70,0.00,,,0.00,213,Wunderground v.1.15,2013-06-16 13:04:00,
2013-06-16 09:14:00,67.4,56.1,29.93,North,360,0.0,0.0,67,0.00,,,0.00,301,Wunderground v.1.15,2013-06-16 13:14:00,
2013-06-16 09:24:00,68.1,56.3,29.92,North,360,0.0,1.0,66,0.00,,,0.00,322,Wunderground v.1.15,2013-06-16 13:24:00,
2013-06-16 09:34:00,69.1,56.4,29.92,North,360,0.0,0.0,64,0.00,,,0.00,343,Wunderground v.1.15,2013-06-16 13:34:00,
2013-06-16 09:43:00,70.3,55.3,29.92,North,360,0.0,1.0,59,0.00,,,0.00,478,Wunderground v.1.15,2013-06-16 13:43:00,
2013-06-16 09:53:00,71.1,56.0,29.91,North,360,0.0,1.0,59,0.00,,,0.00,272,Wunderground v.1.15,2013-06-16 13:53:00,
2013-06-16 10:03:00,71.6,55.1,29.90,North,360,0.0,0.0,56,0.00,,,0.00,301,Wunderground v.1.15,2013-06-16 14:03:00,
2013-06-16 10:13:00,72.3,54.2,29.90,NNE,24,0.0,3.0,53,0.00,,,0.00,341,Wunderground v.1.15,2013-06-16 14:13:00,
2013-06-16 10:23:00,73.3,54.1,29.91,North,360,0.0,1.0,51,0.00,,,0.00,671,Wunderground v.1.15,2013-06-16 14:23:00,
2013-06-16 10:35:00,74.9,53.3,29.90,North,360,1.0,1.0,47,0.00,,,0.00,446,Wunderground v.1.15,2013-06-16 14:35:00,
2013-06-16 10:43:00,75.6,53.4,29.90,North,360,1.0,2.0,46,0.00,,,0.00,564,Wunderground v.1.15,2013-06-16 14:43:00,
2013-06-16 10:54:00,77.2,53.6,29.90,North,360,1.0,1.0,44,0.00,,,0.00,729,Wunderground v.1.15,2013-06-16 14:54:00,
2013-06-16 11:03:00,78.5,52.2,29.89,North,360,1.0,2.0,40,0.00,,,0.00,802,Wunderground v.1.15,2013-06-16 15:03:00,
2013-06-16 11:13:00,79.0,51.9,29.89,North,360,2.0,5.0,39,0.00,,,0.00,443,Wunderground v.1.15,2013-06-16 15:13:00,
2013-06-16 11:23:00,79.2,50.7,29.88,North,360,2.0,2.0,37,0.00,,,0.00,427,Wunderground v.1.15,2013-06-16 15:23:00,
2013-06-16 11:31:00,79.0,46.6,29.87,North,360,3.0,3.0,32,0.00,,,0.00,485,Wunderground v.1.15,2013-06-16 15:31:00,
2013-06-16 11:43:00,79.0,48.2,29.87,North,360,2.0,6.0,34,0.00,,,0.00,462,Wunderground v.1.15,2013-06-16 15:43:00,
2013-06-16 11:51:00,79.0,45.8,29.86,North,360,3.0,6.0,31,0.00,,,0.00,450,Wunderground v.1.15,2013-06-16 15:51:00,
2013-06-16 12:03:00,79.4,46.1,29.85,North,360,3.0,3.0,31,0.00,,,0.00,376,Wunderground v.1.15,2013-06-16 16:03:00,
2013-06-16 12:15:00,79.2,47.6,29.85,North,360,3.0,3.0,33,0.00,,,0.00,432,Wunderground v.1.15,2013-06-16 16:15:00,
2013-06-16 12:20:00,79.6,48.8,29.85,North,360,2.0,3.0,34,0.00,,,0.00,343,Wunderground v.1.15,2013-06-16 16:20:00,
2013-06-16 12:26:00,79.8,48.9,29.85,North,360,2.0,3.0,34,0.00,,,0.00,360,Wunderground v.1.15,2013-06-16 16:26:00,
2013-06-16 12:32:00,79.8,48.1,29.84,North,360,2.0,4.0,33,0.00,,,0.00,348,Wunderground v.1.15,2013-06-16 16:32:00,
2013-06-16 12:39:00,79.6,48.0,29.84,North,360,3.0,6.0,33,0.00,,,0.00,285,Wunderground v.1.15,2013-06-16 16:39:00,
2013-06-16 12:44:00,79.4,47.0,29.84,North,360,3.0,3.0,32,0.00,,,0.00,204,Wunderground v.1.15,2013-06-16 16:44:00,
2013-06-16 12:50:00,79.2,47.6,29.84,North,360,2.0,4.0,33,0.00,,,0.00,237,Wunderground v.1.15,2013-06-16 16:50:00,
2013-06-16 12:56:00,79.0,48.2,29.84,North,360,2.0,6.0,34,0.00,,,0.00,250,Wunderground v.1.15,2013-06-16 16:56:00,
2013-06-16 13:02:00,79.0,49.0,29.83,North,360,1.0,6.0,35,0.00,,,0.00,137,Wunderground v.1.15,2013-06-16 17:02:00,
2013-06-16 13:09:00,79.0,49.8,29.83,North,360,0.0,1.0,36,0.00,,,0.00,183,Wunderground v.1.15,2013-06-16 17:09:00,
2013-06-16 13:14:00,78.8,49.6,29.83,North,360,1.0,6.0,36,0.00,,,0.00,220,Wunderground v.1.15,2013-06-16 17:14:00,
2013-06-16 13:21:00,78.6,49.4,29.82,North,360,2.0,6.0,36,0.00,,,0.00,272,Wunderground v.1.15,2013-06-16 17:21:00,
2013-06-16 13:27:00,79.0,49.8,29.82,North,360,1.0,4.0,36,0.00,,,0.00,357,Wunderground v.1.15,2013-06-16 17:27:00,
2013-06-16 13:33:00,79.0,48.2,29.81,North,360,2.0,6.0,34,0.00,,,0.00,301,Wunderground v.1.15,2013-06-16 17:33:00,
2013-06-16 13:41:00,79.0,48.2,29.81,NNE,30,3.0,6.0,34,0.00,,,0.00,244,Wunderground v.1.15,2013-06-16 17:41:00,
2013-06-16 13:47:00,79.0,48.2,29.81,North,360,2.0,3.0,34,0.00,,,0.00,367,Wunderground v.1.15,2013-06-16 17:47:00,
2013-06-16 13:53:00,79.6,51.0,29.81,North,360,2.0,5.0,37,0.00,,,0.00,431,Wunderground v.1.15,2013-06-16 17:53:00,
2013-06-16 13:59:00,79.9,50.6,29.80,North,360,3.0,4.0,36,0.00,,,0.00,541,Wunderground v.1.15,2013-06-16 17:59:00,
2013-06-16 14:04:00,80.7,51.3,29.80,North,360,2.0,4.0,36,0.00,,,0.00,492,Wunderground v.1.15,2013-06-16 18:04:00,
2013-06-16 14:11:00,81.1,50.9,29.80,North,360,3.0,5.0,35,0.00,,,0.00,610,Wunderground v.1.15,2013-06-16 18:11:00,
2013-06-16 14:17:00,81.2,50.2,29.78,NNE,28,4.0,4.0,34,0.00,,,0.00,865,Wunderground v.1.15,2013-06-16 18:17:00,
2013-06-16 14:22:00,82.2,51.0,29.78,North,360,4.0,5.0,34,0.00,,,0.00,810,Wunderground v.1.15,2013-06-16 18:22:00,
2013-06-16 14:30:00,82.6,50.6,29.77,North,360,3.0,4.0,33,0.00,,,0.00,659,Wunderground v.1.15,2013-06-16 18:30:00,
2013-06-16 14:36:00,83.2,51.9,29.77,North,360,3.0,4.0,34,0.00,,,0.00,631,Wunderground v.1.15,2013-06-16 18:36:00,
2013-06-16 14:42:00,83.2,51.1,29.77,North,360,3.0,4.0,33,0.00,,,0.00,701,Wunderground v.1.15,2013-06-16 18:42:00,
2013-06-16 14:49:00,82.8,52.3,29.77,North,360,4.0,5.0,35,0.00,,,0.00,601,Wunderground v.1.15,2013-06-16 18:49:00,
2013-06-16 14:56:00,82.8,50.8,29.77,North,360,4.0,4.0,33,0.00,,,0.00,452,Wunderground v.1.15,2013-06-16 18:56:00,
2013-06-16 15:02:00,83.2,52.7,29.76,North,360,3.0,4.0,35,0.00,,,0.00,838,Wunderground v.1.15,2013-06-16 19:02:00,
2013-06-16 15:09:00,83.4,52.1,29.76,North,360,4.0,8.0,34,0.00,,,0.00,724,Wunderground v.1.15,2013-06-16 19:09:00,
2013-06-16 15:14:00,83.2,51.9,29.76,North,360,5.0,8.0,34,0.00,,,0.00,631,Wunderground v.1.15,2013-06-16 19:14:00,
2013-06-16 15:20:00,82.8,52.3,29.76,North,360,5.0,6.0,35,0.00,,,0.00,513,Wunderground v.1.15,2013-06-16 19:20:00,
2013-06-16 15:26:00,82.4,53.5,29.76,North,360,5.0,5.0,37,0.00,,,0.00,385,Wunderground v.1.15,2013-06-16 19:26:00,
2013-06-16 15:32:00,82.2,53.3,29.75,North,360,3.0,7.0,37,0.00,,,0.00,360,Wunderground v.1.15,2013-06-16 19:32:00,
2013-06-16 15:40:00,82.6,54.4,29.75,North,360,2.0,3.0,38,0.00,,,0.00,397,Wunderground v.1.15,2013-06-16 19:40:00,
2013-06-16 15:46:00,82.4,55.0,29.76,North,360,3.0,3.0,39,0.00,,,0.00,373,Wunderground v.1.15,2013-06-16 19:46:00,
2013-06-16 15:52:00,82.2,56.2,29.76,North,360,4.0,4.0,41,0.00,,,0.00,432,Wunderground v.1.15,2013-06-16 19:52:00,
2013-06-16 15:58:00,83.0,57.5,29.76,North,360,3.0,6.0,42,0.00,,,0.00,740,Wunderground v.1.15,2013-06-16 19:58:00,
2013-06-16 16:06:00,83.4,56.5,29.76,North,360,3.0,4.0,40,0.00,,,0.00,223,Wunderground v.1.15,2013-06-16 20:06:00,
2013-06-16 16:12:00,83.2,56.4,29.76,North,360,3.0,7.0,40,0.00,,,0.00,158,Wunderground v.1.15,2013-06-16 20:12:00,
2013-06-16 16:19:00,82.6,57.2,29.76,North,360,3.0,3.0,42,0.00,,,0.00,84,Wunderground v.1.15,2013-06-16 20:19:00,
2013-06-16 16:27:00,82.0,57.3,29.76,North,360,3.0,3.0,43,0.00,,,0.00,158,Wunderground v.1.15,2013-06-16 20:27:00,
2013-06-16 16:33:00,81.8,57.8,29.76,North,360,4.0,4.0,44,0.00,,,0.00,130,Wunderground v.1.15,2013-06-16 20:33:00,
2013-06-16 16:41:00,81.6,57.6,29.76,North,360,4.0,4.0,44,0.00,,,0.00,169,Wunderground v.1.15,2013-06-16 20:41:00,
2013-06-16 16:47:00,81.6,58.2,29.76,North,360,3.0,3.0,45,0.00,,,0.00,130,Wunderground v.1.15,2013-06-16 20:47:00,
2013-06-16 16:53:00,81.4,58.0,29.76,North,360,3.0,5.0,45,0.00,,,0.00,135,Wunderground v.1.15,2013-06-16 20:53:00,
2013-06-16 16:59:00,81.4,58.6,29.76,North,360,3.0,5.0,46,0.00,,,0.00,118,Wunderground v.1.15,2013-06-16 20:59:00,
2013-06-16 17:05:00,81.2,58.5,29.76,North,360,2.0,4.0,46,0.00,,,0.00,74,Wunderground v.1.15,2013-06-16 21:05:00,
2013-06-16 17:11:00,81.1,59.0,29.76,North,360,3.0,3.0,47,0.00,,,0.00,40,Wunderground v.1.15,2013-06-16 21:11:00,
2013-06-16 17:16:00,81.1,59.0,29.75,North,360,3.0,4.0,47,0.00,,,0.00,60,Wunderground v.1.15,2013-06-16 21:16:00,
2013-06-16 17:23:00,81.1,59.6,29.75,North,360,2.0,2.0,48,0.00,,,0.00,221,Wunderground v.1.15,2013-06-16 21:23:00,
2013-06-16 17:28:00,81.2,59.6,29.75,North,360,2.0,3.0,48,0.00,,,0.00,197,Wunderground v.1.15,2013-06-16 21:28:00,
2013-06-16 17:35:00,81.4,59.8,29.75,North,360,3.0,5.0,48,0.00,,,0.00,190,Wunderground v.1.15,2013-06-16 21:35:00,
2013-06-16 17:42:00,81.4,59.8,29.75,North,360,4.0,4.0,48,0.00,,,0.00,193,Wunderground v.1.15,2013-06-16 21:42:00,
2013-06-16 17:48:00,81.4,60.4,29.74,North,360,3.0,4.0,49,0.00,,,0.00,190,Wunderground v.1.15,2013-06-16 21:48:00,
2013-06-16 17:55:00,81.4,60.4,29.74,NNE,30,3.0,7.0,49,0.00,,,0.00,206,Wunderground v.1.15,2013-06-16 21:55:00,
2013-06-16 18:02:00,81.4,59.8,29.74,North,360,4.0,5.0,48,0.00,,,0.00,186,Wunderground v.1.15,2013-06-16 22:02:00,
2013-06-16 18:08:00,81.4,59.8,29.74,North,360,5.0,9.0,48,0.00,,,0.00,165,Wunderground v.1.15,2013-06-16 22:08:00,
2013-06-16 18:15:00,81.1,59.6,29.75,North,360,5.0,13.0,48,0.00,,,0.00,135,Wunderground v.1.15,2013-06-16 22:15:00,
2013-06-16 18:22:00,80.7,59.8,29.75,North,360,6.0,6.0,49,0.00,,,0.00,148,Wunderground v.1.15,2013-06-16 22:22:00,
2013-06-16 18:28:00,80.5,60.1,29.75,North,360,5.0,6.0,50,0.00,,,0.00,151,Wunderground v.1.15,2013-06-16 22:28:00,
2013-06-16 18:36:00,80.5,60.1,29.75,North,360,5.0,5.0,50,0.00,,,0.00,132,Wunderground v.1.15,2013-06-16 22:36:00,
2013-06-16 18:42:00,80.5,60.7,29.75,North,360,3.0,3.0,51,0.00,,,0.00,137,Wunderground v.1.15,2013-06-16 22:42:00,
2013-06-16 18:48:00,80.5,60.7,29.75,North,360,3.0,8.0,51,0.00,,,0.00,107,Wunderground v.1.15,2013-06-16 22:48:00,
2013-06-16 18:54:00,80.3,60.5,29.75,North,360,4.0,5.0,51,0.00,,,0.00,53,Wunderground v.1.15,2013-06-16 22:54:00,
2013-06-16 19:02:00,79.9,60.7,29.75,North,360,6.0,7.0,52,0.00,,,0.00,70,Wunderground v.1.15,2013-06-16 23:02:00,
2013-06-16 19:08:00,79.8,61.1,29.75,North,360,6.0,7.0,53,0.00,,,0.00,42,Wunderground v.1.15,2013-06-16 23:08:00,
2013-06-16 19:14:00,79.6,61.5,29.76,North,360,5.0,9.0,54,0.00,,,0.00,37,Wunderground v.1.15,2013-06-16 23:14:00,
2013-06-16 19:20:00,79.4,61.3,29.76,North,360,5.0,5.0,54,0.00,,,0.00,35,Wunderground v.1.15,2013-06-16 23:20:00,
2013-06-16 19:26:00,79.2,61.6,29.76,North,360,5.0,8.0,55,0.00,,,0.00,33,Wunderground v.1.15,2013-06-16 23:26:00,
2013-06-16 19:32:00,79.2,61.6,29.77,North,360,4.0,4.0,55,0.00,,,0.00,30,Wunderground v.1.15,2013-06-16 23:32:00,
2013-06-16 19:37:00,79.0,61.5,29.77,North,360,4.0,4.0,55,0.00,,,0.00,28,Wunderground v.1.15,2013-06-16 23:37:00,
2013-06-16 19:45:00,78.6,61.6,29.77,North,360,3.0,4.0,56,0.00,,,0.00,23,Wunderground v.1.15,2013-06-16 23:45:00,
2013-06-16 19:51:00,78.5,61.5,29.77,North,360,3.0,3.0,56,0.00,,,0.00,23,Wunderground v.1.15,2013-06-16 23:51:00,
2013-06-16 19:57:00,78.5,62.0,29.77,North,360,4.0,6.0,57,0.00,,,0.00,19,Wunderground v.1.15,2013-06-16 23:57:00,
2013-06-16 20:04:00,78.3,61.8,29.77,North,360,4.0,5.0,57,0.00,,,0.00,12,Wunderground v.1.15,2013-06-17 00:04:00,
2013-06-16 20:09:00,78.1,62.1,29.77,North,360,4.0,4.0,58,0.00,,,0.00,11,Wunderground v.1.15,2013-06-17 00:09:00,
2013-06-16 20:15:00,77.7,62.2,29.77,North,360,4.0,6.0,59,0.00,,,0.00,7,Wunderground v.1.15,2013-06-17 00:15:00,
2013-06-16 20:21:00,77.6,62.6,29.77,North,360,3.0,4.0,60,0.00,,,0.00,5,Wunderground v.1.15,2013-06-17 00:21:00,
2013-06-16 20:27:00,77.4,62.4,29.77,North,360,3.0,6.0,60,0.00,,,0.00,0,Wunderground v.1.15,2013-06-17 00:27:00,
2013-06-16 20:34:00,77.2,62.2,29.77,North,360,4.0,4.0,60,0.00,,,0.00,0,Wunderground v.1.15,2013-06-17 00:34:00,
2013-06-16 20:41:00,77.0,62.5,29.77,North,360,3.0,4.0,61,0.00,,,0.00,0,Wunderground v.1.15,2013-06-17 00:41:00,
2013-06-16 20:47:00,76.8,62.8,29.78,North,360,3.0,4.0,62,0.00,,,0.00,0,Wunderground v.1.15,2013-06-17 00:47:00,
2013-06-16 20:54:00,76.8,62.8,29.78,North,360,2.0,3.0,62,0.00,,,0.00,0,Wunderground v.1.15,2013-06-17 00:54:00,
2013-06-16 20:59:00,76.7,62.7,29.78,North,360,2.0,4.0,62,0.00,,,0.00,0,Wunderground v.1.15,2013-06-17 00:59:00,
2013-06-16 21:05:00,76.5,63.0,29.79,North,360,2.0,4.0,63,0.00,,,0.00,0,Wunderground v.1.15,2013-06-17 01:05:00,
2013-06-16 21:11:00,76.3,62.8,29.79,North,360,2.0,3.0,63,0.00,,,0.00,0,Wunderground v.1.15,2013-06-17 01:11:00,
2013-06-16 21:17:00,76.3,63.2,29.79,North,360,2.0,5.0,64,0.00,,,0.00,0,Wunderground v.1.15,2013-06-17 01:17:00,
2013-06-16 21:23:00,76.1,63.0,29.79,North,360,3.0,4.0,64,0.00,,,0.00,0,Wunderground v.1.15,2013-06-17 01:23:00,
2013-06-16 21:29:00,76.0,62.9,29.79,North,360,3.0,3.0,64,0.00,,,0.00,0,Wunderground v.1.15,2013-06-17 01:29:00,
2013-06-16 21:34:00,76.0,63.4,29.80,North,360,2.0,6.0,65,0.00,,,0.00,0,Wunderground v.1.15,2013-06-17 01:34:00,
2013-06-16 21:40:00,75.8,63.2,29.80,North,360,3.0,3.0,65,0.00,,,0.00,0,Wunderground v.1.15,2013-06-17 01:40:00,
2013-06-16 21:46:00,75.8,63.6,29.80,North,360,2.0,3.0,66,0.00,,,0.00,0,Wunderground v.1.15,2013-06-17 01:46:00,
2013-06-16 21:53:00,75.6,63.4,29.80,North,360,1.0,2.0,66,0.00,,,0.00,0,Wunderground v.1.15,2013-06-17 01:53:00,
2013-06-16 21:58:00,75.4,63.7,29.80,North,360,1.0,1.0,67,0.00,,,0.00,0,Wunderground v.1.15,2013-06-17 01:58:00,
2013-06-16 22:04:00,75.3,63.6,29.81,North,360,2.0,2.0,67,0.00,,,0.00,0,Wunderground v.1.15,2013-06-17 02:04:00,
2013-06-16 22:10:00,75.1,63.8,29.81,North,360,1.0,3.0,68,0.00,,,0.00,0,Wunderground v.1.15,2013-06-17 02:10:00,
2013-06-16 22:16:00,75.1,64.2,29.82,North,360,2.0,4.0,69,0.00,,,0.00,0,Wunderground v.1.15,2013-06-17 02:16:00,
2013-06-16 22:23:00,74.9,64.0,29.82,North,360,2.0,2.0,69,0.00,,,0.00,0,Wunderground v.1.15,2013-06-17 02:23:00,
2013-06-16 22:28:00,74.9,64.0,29.82,North,360,2.0,2.0,69,0.00,,,0.00,0,Wunderground v.1.15,2013-06-17 02:28:00,
2013-06-16 22:34:00,74.9,64.5,29.82,North,360,1.0,3.0,70,0.00,,,0.00,0,Wunderground v.1.15,2013-06-17 02:34:00,
2013-06-16 22:40:00,74.7,64.3,29.82,North,360,1.0,2.0,70,0.00,,,0.00,0,Wunderground v.1.15,2013-06-17 02:40:00,
2013-06-16 22:46:00,74.6,64.6,29.82,North,360,1.0,2.0,71,0.00,,,0.00,0,Wunderground v.1.15,2013-06-17 02:46:00,
2013-06-16 22:53:00,74.4,64.4,29.82,North,360,1.0,1.0,71,0.00,,,0.00,0,Wunderground v.1.15,2013-06-17 02:53:00,
2013-06-16 22:58:00,74.2,64.6,29.82,North,360,1.0,1.0,72,0.00,,,0.00,0,Wunderground v.1.15,2013-06-17 02:58:00,
2013-06-16 23:04:00,74.0,64.4,29.82,North,360,1.0,1.0,72,0.00,,,0.00,0,Wunderground v.1.15,2013-06-17 03:04:00,
2013-06-16 23:10:00,73.9,64.7,29.82,North,360,1.0,2.0,73,0.00,,,0.00,0,Wunderground v.1.15,2013-06-17 03:10:00,
2013-06-16 23:16:00,73.7,64.5,29.82,North,360,1.0,2.0,73,0.00,,,0.00,0,Wunderground v.1.15,2013-06-17 03:16:00,
2013-06-16 23:22:00,73.5,64.7,29.82,North,360,0.0,1.0,74,0.00,,,0.00,0,Wunderground v.1.15,2013-06-17 03:22:00,
2013-06-16 23:30:00,73.3,64.5,29.83,North,360,0.0,2.0,74,0.00,,,0.00,0,Wunderground v.1.15,2013-06-17 03:30:00,
2013-06-16 23:36:00,73.2,64.4,29.83,North,360,0.0,2.0,74,0.00,,,0.00,0,Wunderground v.1.15,2013-06-17 03:36:00,
2013-06-16 23:42:00,73.0,64.6,29.83,North,360,0.0,0.0,75,0.00,,,0.00,0,Wunderground v.1.15,2013-06-17 03:42:00,
2013-06-16 23:48:00,72.8,64.4,29.83,North,360,0.0,0.0,75,0.00,,,0.00,0,Wunderground v.1.15,2013-06-17 03:48:00,
2013-06-16 23:54:00,72.7,64.3,29.83,North,360,0.0,0.0,75,0.00,,,0.00,0,Wunderground v.1.15,2013-06-17 03:54:00,